Location: Cactus School
(34.5700°N, 118.0931°W)
Time: 19:58:55
(UTC-07:00)

Courier 1B - Visible Passes

Search period start: 21 April 2024 00:00
Search period end: 01 May 2024 00:00
Orbit: 962 x 1208 km, 28.3° (Epoch: 21 April)

Date Brightness Start Highest point End Pass type
(mag) Time Alt. Az. Time Alt. Az. Time Alt. Az.
21 Apr 7.9 03:48:53 52° S 03:49:02 52° S 03:55:43 10° ESE visible
21 Apr 8.1 05:36:08 10° W 05:42:48 44° SSW 05:49:07 10° ESE visible
22 Apr 8.9 02:58:17 31° ESE 02:58:17 31° ESE 03:01:59 10° E visible
22 Apr 8.0 04:45:09 25° WSW 04:49:02 49° S 04:55:34 10° ESE visible
23 Apr 10.0 02:07:42 12° E 02:07:42 12° E 02:08:12 10° E visible
23 Apr 7.8 03:54:35 51° SSW 03:55:13 52° S 04:01:58 10° ESE visible
23 Apr 8.4 05:42:32 10° W 05:48:53 35° SSW 05:54:55 10° SE visible
24 Apr 8.6 03:04:04 36° SE 03:04:04 36° SE 03:08:17 10° ESE visible
24 Apr 8.2 04:50:57 22° WSW 04:55:10 41° SSW 05:01:33 10° SE visible
25 Apr 9.8 02:13:38 14° ESE 02:13:38 14° ESE 02:14:32 10° ESE visible
25 Apr 8.0 04:00:32 45° SSW 04:01:21 47° S 04:08:04 10° ESE visible
26 Apr 8.6 03:10:11 36° SE 03:10:11 36° SE 03:14:27 10° ESE visible
26 Apr 8.5 04:57:06 19° WSW 05:01:12 32° SSW 05:07:13 10° SE visible
27 Apr 9.8 02:19:58 14° ESE 02:19:58 14° ESE 02:20:46 10° ESE visible
27 Apr 8.2 04:06:53 37° SSW 04:07:26 38° SSW 04:13:54 10° SE visible
27 Apr 9.5 21:26:46 10° SSW 21:29:02 16° S 21:29:02 16° S visible
28 Apr 8.9 03:16:47 29° SE 03:16:47 29° SE 03:20:27 10° SE visible
28 Apr 8.9 05:03:43 16° WSW 05:07:07 22° SSW 05:12:17 10° SSE visible
28 Apr 9.3 20:34:20 10° S 20:38:18 15° SSE 20:39:33 14° SE visible
28 Apr 9.6 22:24:51 10° SW 22:26:31 17° SW 22:26:31 17° SW visible
29 Apr 10.0 02:26:50 10° ESE 02:26:50 10° ESE 02:26:51 10° ESE visible
29 Apr 8.6 04:13:47 28° SSW 04:13:47 28° SSW 04:19:20 10° SSE visible
29 Apr 8.8 21:31:27 10° SW 21:36:57 29° S 21:36:57 29° S visible
30 Apr 9.3 03:23:58 19° SSE 03:23:58 19° SSE 03:26:08 10° SE visible
30 Apr 9.3 05:10:55 12° SW 05:12:57 13° SSW 05:16:08 10° S visible
30 Apr 8.9 20:38:18 10° SSW 20:44:07 24° SSE 20:47:17 18° ESE visible
30 Apr 9.0 22:30:28 10° WSW 22:34:14 29° SW 22:34:14 29° SW visible
